Location: Unspecified
(49.2170°N, 0.0000°E)
Time: 04:34:17
(UTC+00:00)

Transit 4A - Pass Details

Date: 23 June 2019
Orbit: 862 x 982 km, 66.8° (Epoch: 18 July)

Event Time Altitude Azimuth Distance (km) Brightness Sun altitude
Rises 14:35:15 0° 322° (NW) 3,697 11.1 50.5°
Reaches altitude 10° 14:38:13 10° 333° (NNW) 2,745 10.5 50.1°
Maximum altitude 14:43:47 30° 33° (NNE) 1,681 9.3 49.2°
Drops below altitude 10° 14:49:16 10° 93° (E) 2,699 10.1 48.4°
Sets 14:52:09 0° 105° (ESE) 3,626 10.7 48.0°
